Overview Statistics Trail Chart Weather Telemetry Raw packets
 

This is the latest recevied weather packets stored in our database for station/object N2ZVN. If no packets are shown the sender has not sent any weather packets the latest 10 day(s).

<< 92 93 94 95 96 97 98 >>
Time Temp. Humidity Pressure Rain* Wind** Luminosity Snow
1788022963 23.89° C 52% 1023.8 hPa 0 mm - 698 W/m² -
1788022660 23.33° C 54% 1023.9 hPa 0 mm - 716 W/m² -
1788022359 23.33° C 56% 1024.2 hPa 0 mm - 720 W/m² -
1788022058 22.78° C 55% 1024 hPa 0 mm - 736 W/m² -
1788021753 22.22° C 55% 1024.1 hPa 0 mm - 615 W/m² -
1788021452 22.22° C 57% 1024.1 hPa 0 mm - 627 W/m² -
1788021152 22.78° C 62% 1024.2 hPa 0 mm - 243 W/m² -
1788020847 23.33° C 58% 1024.4 hPa 0 mm - 181 W/m² -
1788020544 22.78° C 55% 1024.4 hPa 0 mm - 524 W/m² -
1788020238 22.22° C 60% 1024.4 hPa 0 mm - 643 W/m² -
1788019934 21.67° C 67% 1024.6 hPa 0 mm - 217 W/m² -
1788019628 21.67° C 64% 1024.6 hPa 0 mm - 190 W/m² -
1788019328 21.11° C 65% 1024.5 hPa 0 mm - 194 W/m² -
1788019026 20.56° C 71% 1024.6 hPa 0 mm - 846 W/m² -
1788018721 20° C 76% 1024.3 hPa 0 mm - 151 W/m² -
1788018420 20° C 78% 1024.5 hPa 0 mm - 123 W/m² -
1788018115 20.56° C 72% 1024.7 hPa 0 mm - 72 W/m² -
1788017811 20.56° C 71% 1025.1 hPa 0 mm - 74 W/m² -
1788017508 20° C 67% 1024.8 hPa 0 mm - 100 W/m² -
1788017205 20.56° C 68% 1025 hPa 0 mm - 117 W/m² -
1788016904 20.56° C 67% 1025 hPa 0 mm - 98 W/m² -
1788016603 20.56° C 67% 1025.1 hPa 0 mm - 106 W/m² -
1788016297 20.56° C 70% 1024.8 hPa 0 mm - 134 W/m² -
1788015997 20.56° C 68% 1025.1 hPa 0 mm - 125 W/m² -
1788015692 20° C 71% 1025.1 hPa 0 mm - 140 W/m² -

* Rain latest hour (hover to see other rain measurements)
** Current wind speed in m/s (hover to see current wind gust speed)